Location: Newark
(47.7394°N, 8.0008°E)
Time: 01:30:16
(UTC+00:00)

N. Korean satellite - Pass Details

Date: 17 December 2019
Orbit: 454 x 507 km, 97.2° (Epoch: 23 January)

Event Time Altitude Azimuth Distance (km) Brightness Sun altitude
Rises 05:08:13 0° 16° (NNE) 2,526 10.2 -19.6°
Reaches altitude 10° 05:10:20 10° 22° (NNE) 1,635 9.3 -19.2°
Maximum altitude 05:13:46 52° 99° (E) 585 7.3 -18.7°
Drops below altitude 10° 05:17:08 10° 178° (S) 1,599 9.4 -18.1°
Sets 05:19:10 0° 183° (S) 2,463 10.3 -17.8°
